This is the latest recevied weather packets stored in our database for station/object FW0690. If no packets are shown the sender has not sent any weather packets the latest 10 day(s).
| Time | Temp. | Humidity | Pressure | Rain* | Wind** | Luminosity | Snow |
|---|---|---|---|---|---|---|---|
| 1778169043 | 26.67° C | 26% | 1012.2 hPa | - | - | 18 W/m² | - |
| 1778168683 | 26.67° C | 26% | 1012.2 hPa | - | - | 19 W/m² | - |
| 1778168323 | 27.22° C | 26% | 1012.2 hPa | - | - | 19 W/m² | - |
| 1778168087 | 27.22° C | 25% | 1012.2 hPa | - | - | 21 W/m² | - |
| 1778167963 | 27.22° C | 25% | 1012.2 hPa | - | - | 21 W/m² | - |
| 1778167698 | 27.78° C | 25% | 1012.3 hPa | - | - | 25 W/m² | - |
| 1778167603 | 27.22° C | 25% | 1012.3 hPa | - | - | 22 W/m² | - |
| 1778167243 | 27.78° C | 25% | 1012.3 hPa | - | - | 25 W/m² | - |
| 1778166883 | 27.22° C | 25% | 1012.3 hPa | - | - | 26 W/m² | - |
| 1778166523 | 27.78° C | 24% | 1012.4 hPa | - | - | 27 W/m² | - |
| 1778166163 | 27.78° C | 24% | 1012.3 hPa | - | - | 31 W/m² | - |
| 1778165803 | 27.78° C | 23% | 1012.3 hPa | - | - | 35 W/m² | - |
| 1778165443 | 28.33° C | 22% | 1012.4 hPa | - | - | 42 W/m² | - |
| 1778165083 | 29.44° C | 22% | 1012.4 hPa | - | - | 278 W/m² | - |
| 1778164723 | 28.89° C | 21% | 1012.5 hPa | - | - | 278 W/m² | - |
| 1778164363 | 30° C | 21% | 1012.5 hPa | - | - | 118 W/m² | - |
| 1778164003 | 31.11° C | 21% | 1012.5 hPa | - | - | 275 W/m² | - |
| 1778163644 | 31.11° C | 21% | 1012.6 hPa | - | - | 211 W/m² | - |
| 1778163643 | 31.11° C | 21% | 1012.6 hPa | - | - | 211 W/m² | - |
| 1778163283 | 31.11° C | 21% | 1012.6 hPa | - | - | 211 W/m² | - |
| 1778162923 | 30.56° C | 20% | 1012.7 hPa | - | - | 211 W/m² | - |
| 1778162563 | 30.56° C | 20% | 1012.7 hPa | - | - | 211 W/m² | - |
| 1778162204 | 32.78° C | 20% | 1012.7 hPa | - | - | 277 W/m² | - |
| 1778162203 | 32.78° C | 20% | 1012.7 hPa | - | - | 277 W/m² | - |
| 1778161843 | 33.33° C | 20% | 1012.8 hPa | - | - | 295 W/m² | - |
* Rain since midnight (hover to see other rain measurements)
** Current wind speed in m/s (hover to see current wind gust speed)